Details From KOPF - Opa Locka
To MYNN - Nassau Intl
Flight Number -
Tags Real Decoded
Created
Modified
Stats Distance 161 nm / 297 km
Max Altitude 0 ft / 0 m
Waypoints 2
Social Downloads 5
Likes 0
Share VATSIM

Download

Looking for another format? Having issues loading an existing format? Contact us
Advertisement - Login to hide

Notes

Decoded

Route

KOPF MYNN

ID Type Via Altitude Latitude Longitude Leg Dist Tot Dist Heading (true) Name
O KOPF APT - 0 ft / 0 m 25.89904˚ -80.28516˚ - 0 nm - -
O MYNN APT - 0 ft / 0 m 25.03595˚ -77.48200˚ 160 nm 160 nm 108° / 109° -

Altitude Profile

Advertisement - Login to hide

KOPF

Details ICAO KOPF (OPF)
Name Opa Locka
Region United States
Timezone America/New_York (UTC-4.0)
Stats Elevation 8 ft / 2 m (AMSL)
Location 25.906087° -80.278378°
Runways 3
Magnetic Variation 6.709° W

METAR

KOPF 272153Z 18017KT 10SM BKN023 BKN028 OVC048 28/24 A2981 RMK AO2 PK WND 18028/2124 SLP096 T02780239

Decode

TAF

KOPF 272035Z 2721/2818 17020G30KT P6SM VCSH SCT025 BKN200 FM280200 15010G20KT P6SM SHRA SCT020 BKN035 OVC040 FM280500 16010KT P6SM SHRA SCT015 BKN030 OVC120 FM281400 17015KT P6SM SHRA SCT015 BKN035

Decode

Departure Runways

ID Width Length Bearing (true) Bearing (mag) Surface Threshold Offset Overrun Length
09L 151 ft / 46 m 7,990 ft / 2,435 m 86.92° 93.63° Asphalt 0 ft / 0 m 190 ft / 58 m
09R 98 ft / 30 m 4,300 ft / 1,311 m 86.93° 93.64° Asphalt 0 ft / 0 m 0 ft / 0 m
12 151 ft / 46 m 6,800 ft / 2,073 m 121.96° 128.67° Asphalt 801 ft / 244 m 197 ft / 60 m
27L 98 ft / 30 m 4,300 ft / 1,311 m 266.93° 273.64° Asphalt 0 ft / 0 m 0 ft / 0 m
27R 151 ft / 46 m 7,990 ft / 2,435 m 266.93° 273.64° Asphalt 0 ft / 0 m 187 ft / 57 m
30 151 ft / 46 m 6,800 ft / 2,073 m 301.97° 308.68° Asphalt 0 ft / 0 m 190 ft / 58 m

MYNN

Details ICAO MYNN (NAS)
Name Nassau Intl
Region Bahamas
Timezone America/Nassau (UTC-4.0)
Stats Elevation 16 ft / 5 m (AMSL)
Location 25.038596° -77.466621°
Runways 2
Magnetic Variation 8.258° W

METAR

MYNN 272200Z 14016KT 9999 SCT016 BKN040 OVC080 27/25 A2989 RMK PK WND 22KT

Decode

TAF

TAF MYNN 271750Z 2718/2818 16017KT 6000 RA BKN012CB BKN030 OVC120 PROB40 TEMPO 2720/2802 15016G26KT 3200 TSRA BKN010CB BKN030 OVC140

Decode

Destination Runways

ID Width Length Bearing (true) Bearing (mag) Surface Threshold Offset Overrun Length
09 151 ft / 46 m 8,311 ft / 2,533 m 89.62° 97.88° Asphalt 0 ft / 0 m 0 ft / 0 m
14 151 ft / 46 m 11,364 ft / 3,464 m 134.83° 143.09° Asphalt 226 ft / 69 m 0 ft / 0 m
27 151 ft / 46 m 8,311 ft / 2,533 m 269.64° 277.90° Asphalt 0 ft / 0 m 0 ft / 0 m
32 151 ft / 46 m 11,364 ft / 3,464 m 314.84° 323.10° Asphalt 0 ft / 0 m 0 ft / 0 m

Approach Navaids

Runway Type Ident Frequency Range Bearing (true) Bearing (mag) Slope Elevation
14 Localiser IZQA 110.10 MHz 18 nm / 33 km 134.83° 143.09° - 7 ft / 2 m (AMSL)
14 Glidescope IZQA 110.10 MHz 10 nm / 19 km 134.83° 143.09° 3.00° 8 ft / 2 m (AMSL)

Popular Alternatives